GFSGBSN_500_spd_336.txt.gz
Wind_Speed
12 11 11 10 9 8 7 8 8 7 8 8 9 11 12 13 12 11 9 8 9 9 11 10 11 14 16 17 17 19 19 19 18 16 13 15 1 16 14 12 17 14 7 8 9 13 12
12 11 10 9 8 7 6 5 6 7 7 8 10 11 11 10 9 9 9 8 9 9 11 11 12 14 16 20 19 19 19 19 17 17 16 13 19 14 17 10 12 16 15 10 13 13 13
9 9 9 9 8 7 6 6 6 7 8 8 9 9 9 9 9 8 9 8 9 10 11 17 16 13 24 20 20 20 19 18 17 16 11 17 16 15 19 19 14 20 14 15 17 13 7
4 5 5 6 7 8 8 7 6 6 7 8 8 9 10 9 8 8 8 9 9 12 15 16 16 24 17 17 16 21 20 19 18 15 14 15 18 16 16 22 21 20 16 16 12 16 8
5 4 4 4 4 5 6 6 7 7 7 8 8 8 10 11 11 10 11 10 10 11 12 14 15 18 18 15 17 23 22 20 15 12 10 13 14 13 17 4 16 12 8 13 18 13 7
10 9 8 7 6 5 5 5 5 6 7 8 8 9 9 10 12 12 12 12 12 13 14 16 17 17 17 15 16 19 20 16 12 12 12 12 13 14 15 10 5 10 12 3 7 7 10
16 15 14 12 11 9 8 7 6 6 6 6 6 7 7 8 9 10 11 10 10 10 12 14 16 15 13 15 17 17 16 14 12 11 11 13 10 6 10 5 11 12 11 2 18 17 9
21 20 19 18 17 15 14 12 10 9 8 7 6 6 6 6 7 8 9 8 9 9 9 9 12 13 12 12 12 11 11 11 10 10 11 9 7 1 4 11 10 13 5 10 9 19 10
28 26 24 23 23 21 20 18 16 14 12 11 10 9 8 7 6 6 6 7 8 9 9 9 10 10 11 12 12 10 11 11 11 10 10 10 12 15 12 13 13 9 4 11 26 19 10
31 31 31 29 27 26 25 24 22 19 18 16 14 13 11 10 9 8 7 7 7 7 8 10 9 11 9 9 9 12 12 13 13 11 12 12 17 11 14 15 16 6 14 25 26 17 9
33 35 34 34 33 31 29 28 26 25 23 21 20 18 17 15 13 11 10 10 8 8 11 8 6 9 12 10 13 12 15 14 13 13 14 11 12 15 19 17 15 12 18 23 16 17 15
32 35 38 36 36 36 35 33 31 29 27 25 24 23 22 20 18 17 16 15 13 12 14 9 9 11 10 12 13 14 13 13 15 17 18 17 18 18 18 16 15 20 23 23 20 15 16
27 31 35 39 38 36 37 37 36 33 31 29 28 26 25 24 23 21 20 19 17 16 20 19 16 13 13 14 16 17 16 17 17 17 17 18 18 20 22 22 23 25 21 20 17 14 17
24 27 31 35 40 39 37 37 37 37 36 34 32 30 29 28 27 26 25 23 20 17 10 24 18 17 17 18 19 19 20 19 19 20 21 20 18 16 21 25 23 23 19 20 22 19 17
24 26 28 30 34 40 40 38 36 36 36 36 36 34 33 32 31 30 29 26 22 17 25 28 21 21 20 20 22 23 23 23 23 24 24 24 24 18 17 21 21 20 23 19 23 24 27
24 26 29 29 29 32 39 41 39 36 34 33 34 35 36 35 35 35 34 30 29 32 32 28 23 19 14 15 24 24 24 24 24 24 24 23 27 24 22 20 25 29 26 24 19 23 27
25 26 28 29 29 28 31 38 42 39 37 35 34 34 32 35 36 37 36 32 33 34 35 30 30 27 26 20 18 17 13 15 19 20 23 24 26 24 21 22 24 22 29 26 21 26 23
23 23 25 27 25 25 26 30 34 43 40 38 36 37 33 34 35 34 33 32 34 38 40 34 34 34 35 32 33 34 23 12 22 19 20 16 24 28 27 21 22 24 26 23 26 24 21
20 21 21 23 23 22 22 24 28 31 36 42 41 40 35 36 35 33 31 33 34 36 38 33 33 34 34 35 36 35 30 29 25 34 31 26 19 21 21 21 16 23 23 26 23 24 29
16 17 19 20 23 24 23 21 22 26 28 30 33 36 35 38 36 38 38 36 36 39 36 33 35 35 36 36 36 35 34 32 25 38 38 34 33 29 20 20 19 29 27 32 25 27 24
15 15 17 18 19 21 22 23 21 23 25 26 28 31 37 30 31 34 36 38 39 39 38 39 38 38 38 38 38 38 37 33 32 29 31 28 33 30 32 28 29 22 29 21 22 26 31
16 15 14 14 16 17 20 22 23 24 28 30 30 27 23 26 30 29 33 35 38 37 37 39 40 38 37 38 41 41 39 36 29 28 24 23 25 25 29 25 29 37 33 26 33 36 47
15 16 17 16 16 17 17 19 22 25 26 31 28 30 26 27 26 28 29 34 35 37 37 42 38 40 38 41 43 40 34 33 37 34 33 30 25 26 27 24 26 39 23 31 37 48 40
14 15 16 17 17 16 16 17 20 22 25 28 30 30 28 27 27 27 30 35 34 38 38 38 36 38 33 39 34 31 31 32 34 33 32 33 33 35 37 33 39 28 24 30 45 47 34
14 15 15 15 15 17 18 16 18 20 22 24 28 29 29 28 33 30 37 30 29 31 30 33 33 31 32 30 30 30 29 29 26 27 27 30 31 28 26 27 33 29 28 36 47 47 43
14 14 14 13 15 15 15 16 16 18 20 22 24 26 28 30 36 28 28 27 27 28 28 30 31 31 25 27 26 27 24 20 12 14 11 10 15 22 26 34 32 27 38 43 47 47 51
14 13 13 13 13 12 12 13 14 14 16 18 21 23 26 28 31 26 31 28 27 27 26 31 28 23 26 25 23 21 18 12 13 14 15 15 23 28 28 29 24 34 36 40 44 51 55
14 13 13 12 12 12 12 12 12 13 14 15 16 18 19 21 20 26 25 28 26 29 28 31 22 28 25 26 24 23 23 22 24 25 23 27 34 23 26 28 32 43 43 42 48 50 51
17 16 14 12 11 12 13 13 13 13 13 14 14 13 14 15 16 19 20 22 24 25 26 24 27 24 26 24 28 24 25 26 26 28 32 34 34 36 35 35 39 41 45 49 49 54 53

GFSGBSN_500_spd_339.txt.gz
Wind_Speed
10 10 9 8 8 7 6 6 6 6 6 7 8 10 12 13 12 11 9 8 8 9 10 12 14 15 17 19 19 19 20 18 16 12 11 15 15 22 21 26 22 21 22 18 13 12 19
9 9 8 7 6 6 5 5 5 5 6 6 8 10 11 11 11 9 8 8 9 11 9 12 15 16 19 20 19 21 21 20 17 12 14 17 16 17 24 27 26 26 17 6 12 9 11
8 8 8 7 6 5 5 4 4 5 5 6 7 8 8 9 8 8 8 8 10 11 9 12 15 16 20 19 17 20 20 19 15 12 11 16 20 17 19 22 18 9 7 12 16 15 10
5 6 6 6 6 6 6 5 3 4 5 7 8 8 8 8 7 7 7 8 11 13 13 16 18 16 19 18 19 19 20 19 18 17 15 15 20 18 14 16 18 12 16 8 18 22 15
3 3 3 3 4 4 5 5 4 3 4 5 7 8 8 8 8 8 9 10 13 14 12 19 21 23 16 16 20 20 19 20 19 19 17 18 23 16 9 14 14 16 13 10 8 16 18
8 7 6 5 4 3 3 3 3 3 4 5 6 8 9 8 9 10 10 12 12 14 14 16 21 18 17 19 23 22 21 18 13 17 20 23 20 12 2 8 12 15 11 10 12 20 23
12 12 11 10 9 7 6 5 4 3 2 3 5 6 8 9 10 12 12 12 13 16 19 20 20 19 19 23 22 22 19 13 12 14 15 16 16 7 8 6 5 9 7 5 16 19 12
18 16 16 16 14 13 11 10 9 8 6 4 4 4 6 7 9 9 10 11 13 14 15 16 15 15 15 24 20 17 15 14 14 14 15 17 11 4 7 5 3 4 8 3 11 15 14
24 24 22 20 20 19 17 15 14 12 11 9 8 6 5 5 6 7 8 9 10 11 13 14 14 14 16 16 15 14 14 14 13 12 13 13 15 3 10 8 9 8 7 8 20 23 21
28 29 29 28 25 24 23 21 19 18 16 14 13 11 9 8 7 7 7 8 8 10 11 12 12 14 13 13 13 14 12 12 12 12 13 14 15 10 12 14 16 11 11 10 19 21 13
28 32 33 34 32 30 28 26 25 23 22 20 17 16 14 12 10 10 9 8 7 8 8 10 10 13 13 15 12 14 16 14 13 13 14 12 12 12 12 13 17 14 19 22 16 12 12
24 28 34 36 37 37 35 32 30 28 26 25 23 21 20 18 15 14 13 11 10 10 10 9 9 10 10 13 11 12 13 13 15 14 13 12 13 14 14 14 14 16 21 22 18 16 13
22 23 29 34 38 39 39 38 36 33 31 29 28 26 24 23 21 19 18 15 13 13 10 14 13 10 10 11 12 12 12 13 13 14 12 14 11 9 7 13 16 17 21 22 20 17 12
19 20 22 28 32 38 40 41 40 39 36 34 33 30 29 27 26 24 23 19 16 15 7 13 17 13 13 14 13 14 15 15 14 16 18 19 18 16 10 14 21 19 18 20 23 21 20
23 21 20 22 26 31 37 41 42 41 40 39 37 35 33 32 31 30 28 22 21 24 23 21 23 17 16 16 17 19 18 18 19 20 21 22 19 17 19 11 21 22 27 22 23 23 26
23 25 24 24 24 28 32 36 41 43 40 39 39 39 38 35 35 34 32 25 26 31 30 30 25 21 16 3 15 19 20 21 17 18 21 22 24 17 20 25 20 20 25 26 24 31 31
20 22 25 26 28 28 30 32 35 39 42 40 38 40 37 39 39 38 34 29 29 31 31 30 27 29 28 21 22 22 24 6 15 19 23 20 25 24 23 22 30 23 23 29 27 28 25
17 18 21 24 25 28 29 29 30 33 38 42 40 39 36 37 37 37 34 32 33 35 37 38 35 32 31 31 31 30 32 23 22 21 23 18 23 25 25 25 21 19 20 24 27 32 31
15 16 17 20 21 23 25 25 25 28 32 38 42 42 37 36 36 35 33 32 34 35 38 38 40 36 36 35 37 40 40 33 31 32 33 35 33 31 28 24 14 18 25 28 32 30 29
15 15 15 16 18 19 22 23 23 24 26 32 36 42 41 40 38 37 36 35 35 35 36 40 43 40 36 39 40 42 41 34 38 39 41 43 42 40 36 28 23 24 30 31 31 30 30
15 15 15 14 15 16 19 22 24 24 23 27 31 38 43 44 43 40 38 35 37 38 39 42 42 37 35 36 39 38 36 36 34 44 46 44 42 40 38 38 33 35 27 19 22 31 39
15 15 15 15 14 14 15 17 20 22 24 26 27 28 27 25 31 34 37 35 37 37 39 42 43 40 41 40 41 43 44 42 43 38 43 44 43 35 30 30 33 38 38 31 27 31 34
16 15 16 16 15 15 16 18 18 19 23 23 25 28 27 27 27 26 26 27 30 33 35 38 37 32 39 44 46 45 44 40 36 34 36 40 43 33 34 27 25 28 27 31 34 39 37
20 17 15 16 16 16 17 18 19 19 20 22 26 30 31 29 29 30 30 31 26 35 39 38 43 42 41 45 43 38 36 35 32 30 32 30 31 33 36 32 35 27 23 34 37 39 51
18 16 15 16 16 15 15 16 18 19 19 20 23 27 31 30 32 34 33 36 35 36 37 35 41 42 38 37 32 31 33 33 31 28 27 28 30 32 35 35 33 27 26 37 45 49 47
14 14 13 15 14 14 16 16 17 19 19 20 21 24 27 32 36 36 32 33 32 30 27 27 30 33 33 33 27 29 27 24 22 20 17 16 19 24 26 30 30 33 37 38 38 42 47
15 14 13 14 14 13 13 14 14 16 18 18 20 22 24 26 34 29 29 31 30 29 26 34 36 32 29 28 28 25 22 20 23 17 11 17 21 24 23 26 30 34 35 35 39 43 45
17 17 15 13 14 13 12 12 13 14 15 15 16 18 20 21 28 24 29 32 31 31 30 30 27 32 26 26 26 26 24 22 28 29 27 30 30 29 30 31 35 41 38 40 43 44 45
15 16 17 16 14 14 13 13 13 14 14 14 15 15 15 17 19 20 24 24 26 28 27 28 29 30 32 25 24 23 26 26 29 31 35 34 35 37 43 44 43 37 41 42 42 44 44

GFSGBSN_500_spd_342.txt.gz
Wind_Speed
5 8 9 9 9 7 6 6 6 7 7 8 9 10 12 12 11 10 9 9 10 10 11 12 13 16 17 18 20 22 22 20 16 12 10 13 18 22 21 21 22 17 19 14 15 18 19
8 8 8 8 7 6 6 5 6 6 7 8 10 12 12 12 11 10 8 8 9 11 12 14 15 16 18 20 20 21 21 19 16 13 16 18 22 22 25 19 18 17 13 16 17 16 19
7 7 7 6 6 5 5 5 4 4 5 6 8 9 11 10 9 9 8 9 10 11 12 14 15 17 18 20 19 19 19 19 16 16 31 20 12 24 21 21 13 13 13 11 18 19 22
5 6 6 6 5 5 4 4 3 3 5 6 8 9 9 9 8 8 8 10 11 11 11 16 17 19 19 20 20 20 19 21 21 23 21 23 23 18 10 17 18 11 11 9 9 19 20
6 5 5 5 4 4 4 4 4 3 3 5 7 8 8 9 8 9 10 11 12 13 14 20 19 21 20 21 21 21 19 20 23 24 28 29 23 17 12 15 16 16 14 15 11 19 20
7 7 6 5 4 4 3 3 4 3 3 3 5 6 7 8 8 9 9 14 17 11 17 20 21 24 23 24 23 22 21 20 22 21 25 31 23 20 18 15 14 13 12 7 10 20 18
12 11 9 8 7 6 5 4 2 2 3 4 4 6 7 7 9 9 10 13 12 13 10 19 24 19 22 24 25 24 24 21 22 20 22 24 20 12 17 14 11 6 12 8 12 10 12
17 15 14 14 12 11 10 8 7 5 3 3 4 6 6 8 9 10 11 13 19 17 19 18 17 14 17 21 23 26 23 18 19 24 22 20 14 11 10 9 5 10 11 4 4 10 16
22 21 20 19 17 17 15 14 12 10 9 7 5 5 7 7 8 9 10 13 13 14 17 17 18 18 20 18 20 24 20 19 19 18 19 19 19 17 15 4 4 12 13 8 9 16 21
21 23 25 26 24 22 20 19 18 16 14 12 10 8 7 7 8 9 10 12 12 13 15 14 15 15 15 17 18 20 17 17 16 18 19 17 17 17 10 9 10 13 18 18 12 6 6
20 22 25 29 31 29 27 24 23 22 20 18 16 14 12 11 10 9 9 9 10 12 12 13 14 13 16 16 17 15 17 17 15 17 16 15 18 16 12 12 13 11 21 21 18 17 4
21 21 24 25 31 34 34 31 28 26 25 23 22 19 18 16 15 14 13 11 10 11 11 12 15 14 17 19 18 17 16 16 19 18 15 16 14 9 8 4 6 8 11 20 19 16 13
21 21 20 22 27 32 37 37 35 32 30 29 27 26 23 22 20 18 15 13 13 13 15 17 16 15 14 14 15 13 14 14 15 15 14 17 16 14 14 12 6 9 13 17 17 17 16
21 22 21 18 20 27 32 37 38 38 36 35 32 31 30 28 26 23 20 18 17 20 19 21 21 17 16 16 15 16 17 16 14 14 15 14 14 14 20 19 18 19 14 18 22 20 19
20 21 22 21 18 18 24 30 36 39 39 40 38 36 35 33 32 30 26 22 25 24 24 23 23 23 19 17 18 17 17 17 16 17 18 17 13 19 19 19 22 14 18 16 23 24 24
19 20 21 21 23 23 20 20 24 32 38 41 40 41 39 38 37 34 31 25 27 29 29 28 28 24 22 24 25 25 23 15 14 20 22 21 19 20 19 24 19 19 18 19 20 27 32
15 17 19 19 21 24 26 26 25 26 29 38 42 41 42 43 41 39 33 27 29 31 32 31 30 26 26 25 26 28 25 18 26 27 27 28 28 19 23 25 21 19 18 19 25 27 31
15 16 17 17 19 21 24 26 27 29 30 33 38 42 42 44 42 41 37 32 34 37 37 35 33 32 30 29 28 28 29 27 29 30 29 30 30 30 26 19 24 28 31 33 30 31 32
15 14 14 16 16 19 22 23 25 26 28 30 32 38 43 41 40 41 39 37 39 39 40 40 39 38 35 33 32 32 34 32 33 34 34 35 34 33 32 27 23 27 28 30 30 31 31
16 15 14 14 14 16 18 20 21 22 24 26 29 33 38 45 44 42 40 37 37 37 42 45 45 42 41 39 39 38 40 39 38 39 38 39 39 38 37 33 31 29 30 34 37 38 33
16 15 14 14 13 14 15 17 19 22 25 26 27 28 30 38 43 42 41 38 39 37 36 44 46 45 44 43 38 37 43 45 45 45 45 45 44 44 42 40 39 34 33 36 35 39 37
17 16 15 14 15 15 15 15 17 18 21 26 25 24 23 27 36 41 44 42 41 40 40 39 45 46 45 44 43 42 43 42 47 49 47 50 50 47 44 43 46 44 44 45 47 41 44
20 20 18 17 16 16 17 16 18 17 16 21 23 24 24 23 27 30 35 37 38 40 41 43 45 46 47 47 45 46 44 42 39 39 42 45 49 50 46 43 42 39 30 37 52 55 51
20 20 20 19 18 17 18 17 18 19 17 17 22 24 24 25 29 30 30 31 34 37 37 41 43 45 49 49 45 43 40 39 41 39 35 37 40 38 40 39 38 32 29 31 33 40 50
19 20 18 16 16 17 17 17 16 17 18 17 19 22 25 27 30 30 29 29 30 31 35 39 41 41 43 43 42 33 30 32 31 32 28 32 33 36 35 35 34 34 36 38 40 41 43
18 16 15 15 13 14 14 15 16 17 17 18 19 20 23 28 32 32 31 31 31 30 29 24 24 29 35 38 33 31 31 27 24 27 29 31 28 30 31 35 38 39 40 40 39 41 44
17 17 16 15 13 12 13 14 15 14 15 18 18 18 21 25 28 30 32 32 31 31 30 28 28 30 35 33 28 26 28 23 22 27 30 28 29 32 32 34 37 39 36 37 35 39 41
16 15 14 16 16 14 14 15 14 14 14 14 16 17 18 22 25 24 28 31 34 35 33 31 31 33 33 28 24 25 21 27 25 31 32 33 32 32 32 34 36 36 36 35 36 36 39
15 15 15 14 14 15 15 15 14 14 14 14 14 15 16 18 20 20 25 28 28 31 29 29 31 33 34 26 23 25 23 24 26 32 35 35 37 37 36 38 38 34 37 38 38 43 46

GFSGBSN_500_spd_345.txt.gz
Wind_Speed
9 9 8 7 7 8 8 8 7 7 7 8 9 9 10 12 13 12 11 10 10 10 10 11 12 13 16 21 24 24 21 21 17 13 11 16 15 17 18 17 17 15 16 16 14 20 24
6 5 6 8 9 10 9 8 7 6 7 8 9 11 12 11 12 11 10 9 10 11 12 12 14 14 16 20 23 23 23 22 17 14 10 17 14 17 16 15 9 11 11 13 13 17 18
5 5 6 7 7 8 8 7 6 7 7 8 9 11 12 11 11 11 10 10 10 11 11 13 15 16 18 20 23 23 24 21 16 17 20 26 30 18 14 15 12 11 12 12 12 13 16
4 4 4 5 5 5 5 6 7 7 8 9 10 10 10 10 10 10 9 10 12 13 12 15 16 18 18 21 23 23 21 22 21 23 29 24 26 26 18 14 12 10 11 9 12 12 10
6 4 3 3 3 3 4 5 6 6 7 8 9 10 10 10 10 10 10 12 13 14 13 18 18 19 20 21 24 24 23 23 29 28 21 24 24 13 13 16 17 12 10 10 9 11 10
9 8 7 5 4 3 3 4 4 5 6 7 8 9 9 10 11 11 11 12 12 13 14 20 19 20 22 25 26 26 27 23 28 30 25 28 18 20 19 17 15 11 8 7 4 2 7
13 12 11 10 8 7 6 4 4 4 4 4 6 7 8 10 10 9 10 14 15 12 16 18 19 21 19 20 24 25 29 29 26 23 29 27 19 21 17 13 10 9 7 3 0 3 3
17 16 15 14 13 12 10 8 6 5 3 2 3 5 6 7 7 9 12 16 13 15 16 21 24 21 18 20 23 24 24 27 30 32 30 29 19 16 17 17 16 12 8 5 3 5 7
22 22 21 19 18 17 15 13 11 9 7 6 5 4 5 6 7 8 10 13 16 15 15 19 20 20 22 21 23 23 24 26 27 28 32 29 17 20 17 19 16 14 12 9 9 7 6
20 22 24 25 24 22 20 19 17 15 12 11 9 7 6 6 7 9 11 15 14 15 17 20 19 19 20 24 23 24 23 24 23 25 27 28 25 20 16 12 14 14 17 16 15 4 5
20 21 22 23 27 28 27 25 22 21 19 16 14 12 10 9 7 8 10 13 14 16 19 19 17 16 21 23 27 27 25 21 20 24 23 24 23 22 18 19 17 14 19 17 17 13 12
22 22 22 23 24 28 32 32 29 26 24 22 20 18 16 14 12 11 11 12 14 17 18 18 20 19 21 20 22 25 23 24 25 26 20 23 23 14 11 12 13 13 17 21 19 17 14
22 22 23 24 23 25 29 34 35 33 30 27 26 24 22 20 18 16 13 13 15 18 17 19 20 21 21 21 22 22 20 19 21 21 16 23 21 17 17 14 20 17 17 17 17 17 16
22 22 22 23 24 23 24 29 35 37 37 34 31 29 29 25 24 22 20 18 19 20 20 19 19 21 19 21 19 20 21 20 19 19 22 21 21 17 18 20 19 18 17 18 22 22 20
21 22 21 22 23 24 21 22 27 33 38 40 37 35 34 30 30 28 26 23 25 25 24 21 23 23 24 23 22 24 21 20 20 20 22 22 18 22 21 20 22 20 20 20 25 26 27
21 20 19 21 22 22 24 21 20 22 29 37 39 41 39 37 35 34 32 26 29 29 28 27 28 28 29 27 27 25 25 25 25 24 26 24 20 21 20 22 26 26 25 24 24 27 30
19 19 18 19 19 20 21 23 24 22 21 23 31 41 43 42 41 40 36 30 31 34 33 34 33 30 27 28 27 27 26 27 29 29 28 22 21 20 24 25 26 28 28 30 29 30 33
18 18 18 17 17 17 18 19 22 24 25 26 25 30 39 45 46 44 40 37 38 42 40 38 37 35 33 29 27 29 29 30 30 30 30 27 28 25 24 24 26 26 31 32 32 34 36
17 18 17 16 16 17 17 16 19 22 24 27 28 30 34 38 45 46 46 46 45 44 45 42 42 40 38 34 31 31 32 32 32 32 32 31 31 29 29 28 25 27 34 39 41 41 42
19 18 17 17 16 16 16 15 17 19 22 24 28 27 28 29 37 47 49 44 45 45 48 47 45 47 43 39 37 35 34 36 35 35 36 36 36 35 34 32 31 29 30 33 39 38 40
18 20 19 18 17 16 16 16 16 19 20 21 24 22 21 25 32 38 46 44 44 45 50 53 51 49 47 45 43 42 38 39 40 39 40 41 41 40 40 38 38 36 35 36 39 39 41
16 17 20 20 18 17 18 18 17 18 19 20 23 24 24 27 31 35 39 43 42 43 42 50 52 51 49 47 47 47 45 43 45 46 46 48 48 45 43 45 47 45 45 45 45 44 45
18 17 17 21 22 21 21 21 19 19 20 20 21 22 23 26 28 31 33 39 42 39 42 41 45 49 50 47 46 43 40 41 43 49 54 50 51 53 52 52 53 53 52 49 45 42 44
18 17 17 19 22 23 23 23 21 20 20 21 22 21 22 23 25 26 28 29 35 38 39 41 43 44 46 47 46 45 44 42 36 36 43 49 58 61 61 60 60 55 49 47 43 37 37
21 18 16 16 16 17 19 21 21 19 18 19 22 20 21 23 24 23 24 27 29 35 36 37 37 40 42 43 44 43 43 42 37 40 44 45 48 53 55 56 56 52 46 43 40 37 39
21 20 18 15 15 16 16 18 18 18 17 18 20 20 21 23 23 25 25 26 28 29 29 30 32 31 30 32 32 35 36 33 35 34 38 40 45 49 51 52 52 45 42 41 42 42 44
21 20 19 17 16 16 16 15 16 17 17 18 19 21 21 22 23 24 26 28 30 31 30 29 29 29 31 33 37 38 35 31 31 32 29 35 35 36 36 42 46 44 41 42 44 46 45
20 20 19 18 16 16 17 17 18 17 16 16 16 18 21 21 21 23 25 28 32 34 35 34 34 35 37 37 36 34 30 30 32 31 30 32 34 35 35 37 38 38 37 35 34 36 37
19 19 18 18 17 16 16 16 17 17 15 15 16 18 18 18 18 19 23 28 30 33 32 34 36 36 37 37 34 30 30 30 29 28 31 35 38 36 37 37 37 35 36 35 33 33 39